Location: �terpigny
(49.8910°N, 2.9249°E)
Time: 11:03:42
(UTC+00:00)

Cosmos 407 Rocket - Pass Details

Date: 24 October 2021
Orbit: 742 x 787 km, 74.0° (Epoch: 01 December)

Event Time Altitude Azimuth Distance (km) Brightness Sun altitude
Rises 18:10:02 0° 339° (NNW) 3,268 7.0 -15.2°
Reaches altitude 10° 18:12:33 10° 347° (NNW) 2,343 6.2 -15.6°
Maximum altitude 18:17:36 42° 58° (ENE) 1,106 3.9 -16.4°
Enters shadow 18:20:07 26° 112° (ESE) 1,512 4.5 -16.8°
